Year,Month,Day,Hour,Minute,Value (Times are PST for temperature in C)
2008,10,22,00,00,7.40
2008,10,22,00,01,7.40
2008,10,22,00,02,7.40
2008,10,22,00,03,7.40
2008,10,22,00,04,7.40
2008,10,22,00,05,7.40
2008,10,22,00,06,7.40
2008,10,22,00,07,7.40
2008,10,22,00,08,7.40
2008,10,22,00,09,7.40
2008,10,22,00,10,7.40
2008,10,22,00,11,7.40
2008,10,22,00,12,7.40
2008,10,22,00,13,7.40
2008,10,22,00,14,7.40
2008,10,22,00,15,7.40
2008,10,22,00,16,7.40
2008,10,22,00,17,7.40
2008,10,22,00,18,7.40
2008,10,22,00,19,7.40
2008,10,22,00,20,7.40
2008,10,22,00,21,7.40
2008,10,22,00,22,7.40
2008,10,22,00,23,7.50
2008,10,22,00,24,7.50
2008,10,22,00,25,7.50
2008,10,22,00,26,7.50
2008,10,22,00,27,7.50
2008,10,22,00,28,7.50
2008,10,22,00,29,7.50
2008,10,22,00,30,7.60
2008,10,22,00,31,7.60
2008,10,22,00,32,7.50
2008,10,22,00,33,7.50
2008,10,22,00,34,7.50
2008,10,22,00,35,7.50
2008,10,22,00,36,7.50
2008,10,22,00,37,7.50
2008,10,22,00,38,7.50
2008,10,22,00,39,7.50
2008,10,22,00,40,7.50
2008,10,22,00,41,7.50
2008,10,22,00,42,7.50
2008,10,22,00,43,7.50
2008,10,22,00,44,7.50
2008,10,22,00,45,7.50
2008,10,22,00,46,7.50
2008,10,22,00,47,7.50
2008,10,22,00,48,7.50
2008,10,22,00,49,7.50
2008,10,22,00,50,7.50
2008,10,22,00,51,7.50
2008,10,22,00,52,7.50
2008,10,22,00,53,7.50
2008,10,22,00,54,7.50
2008,10,22,00,55,7.50
2008,10,22,00,56,7.50
2008,10,22,00,57,7.50
2008,10,22,00,58,7.50
2008,10,22,00,59,7.50
2008,10,22,01,00,7.50
2008,10,22,01,01,7.50
2008,10,22,01,02,7.50
2008,10,22,01,03,7.50
2008,10,22,01,04,7.50
2008,10,22,01,05,7.50
2008,10,22,01,06,7.50
2008,10,22,01,07,7.50
2008,10,22,01,08,7.50
2008,10,22,01,09,7.50
2008,10,22,01,10,7.50
2008,10,22,01,11,7.50
2008,10,22,01,12,7.50
2008,10,22,01,13,7.50
2008,10,22,01,14,7.50
2008,10,22,01,15,7.50
2008,10,22,01,16,7.50
2008,10,22,01,17,7.50
2008,10,22,01,18,7.50
2008,10,22,01,19,7.50
2008,10,22,01,20,7.50
2008,10,22,01,21,7.50
2008,10,22,01,22,7.50
2008,10,22,01,23,7.50
2008,10,22,01,24,7.60
2008,10,22,01,25,7.60
2008,10,22,01,26,7.60
2008,10,22,01,27,7.60
2008,10,22,01,28,7.60
2008,10,22,01,29,7.60
2008,10,22,01,30,7.60
2008,10,22,01,31,7.50
2008,10,22,01,32,7.60
2008,10,22,01,33,7.50
2008,10,22,01,34,7.50
2008,10,22,01,35,7.50
2008,10,22,01,36,7.50
2008,10,22,01,37,7.50
2008,10,22,01,38,7.50
2008,10,22,01,39,7.50
2008,10,22,01,40,7.50
2008,10,22,01,41,7.50
2008,10,22,01,42,7.50
2008,10,22,01,43,7.50
2008,10,22,01,44,7.50
2008,10,22,01,45,7.50
2008,10,22,01,46,7.50
2008,10,22,01,47,7.50
2008,10,22,01,48,7.50
2008,10,22,01,49,7.50
2008,10,22,01,50,7.40
2008,10,22,01,51,7.40
2008,10,22,01,52,7.40
2008,10,22,01,53,7.40
2008,10,22,01,54,7.40
2008,10,22,01,55,7.40
2008,10,22,01,56,7.40
2008,10,22,01,57,7.40
2008,10,22,01,58,7.40
2008,10,22,01,59,7.40
2008,10,22,02,00,7.40
2008,10,22,02,01,7.30
2008,10,22,02,02,7.30
2008,10,22,02,03,7.30
2008,10,22,02,04,7.30
2008,10,22,02,05,7.30
2008,10,22,02,06,7.30
2008,10,22,02,07,7.30
2008,10,22,02,08,7.30
2008,10,22,02,09,7.30
2008,10,22,02,10,7.30
2008,10,22,02,11,7.30
2008,10,22,02,12,7.30
2008,10,22,02,13,7.30
2008,10,22,02,14,7.30
2008,10,22,02,15,7.30
2008,10,22,02,16,7.30
2008,10,22,02,17,7.30
2008,10,22,02,18,7.30
2008,10,22,02,19,7.30
2008,10,22,02,20,7.30
2008,10,22,02,21,7.30
2008,10,22,02,22,7.30
2008,10,22,02,23,7.30
2008,10,22,02,24,7.30
2008,10,22,02,25,7.30
2008,10,22,02,26,7.30
2008,10,22,02,27,7.30
2008,10,22,02,28,7.30
2008,10,22,02,29,7.30
2008,10,22,02,30,7.30
2008,10,22,02,31,7.30
2008,10,22,02,32,7.30
2008,10,22,02,33,7.30
2008,10,22,02,34,7.30
2008,10,22,02,35,7.30
2008,10,22,02,36,7.30
2008,10,22,02,37,7.30
2008,10,22,02,38,7.30
2008,10,22,02,39,7.30
2008,10,22,02,40,7.30
2008,10,22,02,41,7.30
2008,10,22,02,42,7.30
2008,10,22,02,43,7.30
2008,10,22,02,44,7.30
2008,10,22,02,45,7.30
2008,10,22,02,46,7.30
2008,10,22,02,47,7.30
2008,10,22,02,48,7.30
2008,10,22,02,49,7.30
2008,10,22,02,50,7.30
2008,10,22,02,51,7.30
2008,10,22,02,52,7.30
2008,10,22,02,53,7.30
2008,10,22,02,54,7.30
2008,10,22,02,55,7.30
2008,10,22,02,56,7.30
2008,10,22,02,57,7.30
2008,10,22,02,58,7.30
2008,10,22,02,59,7.30
2008,10,22,03,00,7.30
2008,10,22,03,01,7.30
2008,10,22,03,02,7.30
2008,10,22,03,03,7.30
2008,10,22,03,04,7.30
2008,10,22,03,05,7.40
2008,10,22,03,06,7.40
2008,10,22,03,07,7.40
2008,10,22,03,08,7.40
2008,10,22,03,09,7.40
2008,10,22,03,10,7.40
2008,10,22,03,11,7.40
2008,10,22,03,12,7.40
2008,10,22,03,13,7.40
2008,10,22,03,14,7.40
2008,10,22,03,15,7.40
2008,10,22,03,16,7.40
2008,10,22,03,17,7.40
2008,10,22,03,18,7.40
2008,10,22,03,19,7.40
2008,10,22,03,20,7.40
2008,10,22,03,21,7.40
2008,10,22,03,22,7.40
2008,10,22,03,23,7.40
2008,10,22,03,24,7.40
2008,10,22,03,25,7.40
2008,10,22,03,26,7.30
2008,10,22,03,27,7.30
2008,10,22,03,28,7.30
2008,10,22,03,29,7.30
2008,10,22,03,30,7.30
2008,10,22,03,31,7.30
2008,10,22,03,32,7.30
2008,10,22,03,33,7.30
2008,10,22,03,34,7.30
2008,10,22,03,35,7.30
2008,10,22,03,36,7.30
2008,10,22,03,37,7.20
2008,10,22,03,38,7.20
2008,10,22,03,39,7.20
2008,10,22,03,40,7.20
2008,10,22,03,41,7.20
2008,10,22,03,42,7.20
2008,10,22,03,43,7.20
2008,10,22,03,44,7.20
2008,10,22,03,45,7.10
2008,10,22,03,46,7.10
2008,10,22,03,47,7.10
2008,10,22,03,48,7.10
2008,10,22,03,49,7.00
2008,10,22,03,50,7.00
2008,10,22,03,51,6.90
2008,10,22,03,52,6.90
2008,10,22,03,53,6.90
2008,10,22,03,54,6.80
2008,10,22,03,55,6.80
2008,10,22,03,56,6.80
2008,10,22,03,57,6.80
2008,10,22,03,58,6.80
2008,10,22,03,59,6.70
2008,10,22,04,00,6.70
2008,10,22,04,01,6.70
2008,10,22,04,02,6.70
2008,10,22,04,03,6.60
2008,10,22,04,04,6.60
2008,10,22,04,05,6.60
2008,10,22,04,06,6.50
2008,10,22,04,07,6.50
2008,10,22,04,08,6.50
2008,10,22,04,09,6.50
2008,10,22,04,10,6.40
2008,10,22,04,11,6.40
2008,10,22,04,12,6.40
2008,10,22,04,13,6.40
2008,10,22,04,14,6.30
2008,10,22,04,15,6.30
2008,10,22,04,16,6.30
2008,10,22,04,17,6.30
2008,10,22,04,18,6.30
2008,10,22,04,19,6.30
2008,10,22,04,20,6.30
2008,10,22,04,21,6.30
2008,10,22,04,22,6.20
2008,10,22,04,23,6.20
2008,10,22,04,24,6.20
2008,10,22,04,25,6.20
2008,10,22,04,26,6.20
2008,10,22,04,27,6.10
2008,10,22,04,28,6.10
2008,10,22,04,29,6.10
2008,10,22,04,30,6.10
2008,10,22,04,31,6.10
2008,10,22,04,32,6.10
2008,10,22,04,33,6.10
2008,10,22,04,34,6.00
2008,10,22,04,35,6.00
2008,10,22,04,36,6.00
2008,10,22,04,37,6.00
2008,10,22,04,38,6.00
2008,10,22,04,39,5.90
2008,10,22,04,40,5.90
2008,10,22,04,41,5.90
2008,10,22,04,42,5.90
2008,10,22,04,43,5.90
2008,10,22,04,44,5.90
2008,10,22,04,45,5.90
2008,10,22,04,46,5.90
2008,10,22,04,47,5.90
2008,10,22,04,48,5.80
2008,10,22,04,49,5.80
2008,10,22,04,50,5.80
2008,10,22,04,51,5.80
2008,10,22,04,52,5.80
2008,10,22,04,53,5.80
2008,10,22,04,54,5.80
2008,10,22,04,55,5.80
2008,10,22,04,56,5.70
2008,10,22,04,57,5.70
2008,10,22,04,58,5.70
2008,10,22,04,59,5.70
2008,10,22,05,00,5.70
2008,10,22,05,01,5.70
2008,10,22,05,02,5.70
2008,10,22,05,03,5.70
2008,10,22,05,04,5.70
2008,10,22,05,05,5.70
2008,10,22,05,06,5.70
2008,10,22,05,07,5.70
2008,10,22,05,08,5.70
2008,10,22,05,09,5.70
2008,10,22,05,10,5.70
2008,10,22,05,11,5.70
2008,10,22,05,12,5.70
2008,10,22,05,13,5.70
2008,10,22,05,14,5.70
2008,10,22,05,15,5.70
2008,10,22,05,16,5.70
2008,10,22,05,17,5.70
2008,10,22,05,18,5.70
2008,10,22,05,19,5.70
2008,10,22,05,20,5.70
2008,10,22,05,21,5.70
2008,10,22,05,22,5.70
2008,10,22,05,23,5.70
2008,10,22,05,24,5.70
2008,10,22,05,25,5.70
2008,10,22,05,26,5.80
2008,10,22,05,27,5.80
2008,10,22,05,28,5.80
2008,10,22,05,29,5.80
2008,10,22,05,30,5.80
2008,10,22,05,31,5.80
2008,10,22,05,32,5.80
2008,10,22,05,33,5.80
2008,10,22,05,34,5.80
2008,10,22,05,35,5.80
2008,10,22,05,36,5.80
2008,10,22,05,37,5.80
2008,10,22,05,38,5.80
2008,10,22,05,39,5.80
2008,10,22,05,40,5.80
2008,10,22,05,41,5.80
2008,10,22,05,42,5.70
2008,10,22,05,43,5.70
2008,10,22,05,44,5.70
2008,10,22,05,45,5.70
2008,10,22,05,46,5.70
2008,10,22,05,47,5.70
2008,10,22,05,48,5.70
2008,10,22,05,49,5.70
2008,10,22,05,50,5.70
2008,10,22,05,51,5.70
2008,10,22,05,52,5.70
2008,10,22,05,53,5.70
2008,10,22,05,54,5.70
2008,10,22,05,55,5.60
2008,10,22,05,56,5.60
2008,10,22,05,57,5.60
2008,10,22,05,58,5.60
2008,10,22,05,59,5.60
2008,10,22,06,00,5.60
2008,10,22,06,01,5.60
2008,10,22,06,02,5.50
2008,10,22,06,03,5.50
2008,10,22,06,04,5.50
2008,10,22,06,05,5.50
2008,10,22,06,06,5.40
2008,10,22,06,07,5.40
2008,10,22,06,08,5.40
2008,10,22,06,09,5.40
2008,10,22,06,10,5.40
2008,10,22,06,11,5.40
2008,10,22,06,12,5.40
2008,10,22,06,13,5.40
2008,10,22,06,14,5.40
2008,10,22,06,15,5.40
2008,10,22,06,16,5.40
2008,10,22,06,17,5.40
2008,10,22,06,18,5.40
2008,10,22,06,19,5.40
2008,10,22,06,20,5.40
2008,10,22,06,21,5.30
2008,10,22,06,22,5.30
2008,10,22,06,23,5.30
2008,10,22,06,24,5.30
2008,10,22,06,25,5.30
2008,10,22,06,26,5.30
2008,10,22,06,27,5.30
2008,10,22,06,28,5.20
2008,10,22,06,29,5.20
2008,10,22,06,30,5.20
2008,10,22,06,31,5.20
2008,10,22,06,32,5.20
2008,10,22,06,33,5.20
2008,10,22,06,34,5.20
2008,10,22,06,35,5.10
2008,10,22,06,36,5.10
2008,10,22,06,37,5.10
2008,10,22,06,38,5.10
2008,10,22,06,39,5.10
2008,10,22,06,40,5.10
2008,10,22,06,41,5.10
2008,10,22,06,42,5.10
2008,10,22,06,43,5.10
2008,10,22,06,44,5.00
2008,10,22,06,45,5.00
2008,10,22,06,46,5.00
2008,10,22,06,47,4.90
2008,10,22,06,48,4.90
2008,10,22,06,49,4.90
2008,10,22,06,50,4.90
2008,10,22,06,51,4.90
2008,10,22,06,52,4.90
2008,10,22,06,53,4.90
2008,10,22,06,54,4.80
2008,10,22,06,55,4.80
2008,10,22,06,56,4.80
2008,10,22,06,57,4.80
2008,10,22,06,58,4.80
2008,10,22,06,59,4.80
2008,10,22,07,00,4.80
2008,10,22,07,01,4.80
2008,10,22,07,02,4.80
2008,10,22,07,03,4.80
2008,10,22,07,04,4.80
2008,10,22,07,05,4.80
2008,10,22,07,06,4.80
2008,10,22,07,07,4.80
2008,10,22,07,08,4.80
2008,10,22,07,09,4.80
2008,10,22,07,10,4.80
2008,10,22,07,11,4.80
2008,10,22,07,12,4.80
2008,10,22,07,13,4.80
2008,10,22,07,14,4.80
2008,10,22,07,15,4.80
2008,10,22,07,16,4.80
2008,10,22,07,17,4.70
2008,10,22,07,18,4.70
2008,10,22,07,19,4.70
2008,10,22,07,20,4.70
2008,10,22,07,21,4.70
2008,10,22,07,22,4.70
2008,10,22,07,23,4.60
2008,10,22,07,24,4.60
2008,10,22,07,25,4.60
2008,10,22,07,26,4.60
2008,10,22,07,27,4.60
2008,10,22,07,28,4.60
2008,10,22,07,29,4.60
2008,10,22,07,30,4.60
2008,10,22,07,31,4.60
2008,10,22,07,32,4.60
2008,10,22,07,33,4.60
2008,10,22,07,34,4.60
2008,10,22,07,35,4.60
2008,10,22,07,36,4.60
2008,10,22,07,37,4.60
2008,10,22,07,38,4.60
2008,10,22,07,39,4.60
2008,10,22,07,40,4.60
2008,10,22,07,41,4.60
2008,10,22,07,42,4.60
2008,10,22,07,43,4.60
2008,10,22,07,44,4.60
2008,10,22,07,45,4.60
2008,10,22,07,46,4.50
2008,10,22,07,47,4.50
2008,10,22,07,48,4.50
2008,10,22,07,49,4.50
2008,10,22,07,50,4.50
2008,10,22,07,51,4.50
2008,10,22,07,52,4.40
2008,10,22,07,53,4.40
2008,10,22,07,54,4.40
2008,10,22,07,55,4.40
2008,10,22,07,56,4.40
2008,10,22,07,57,4.40
2008,10,22,07,58,4.40
2008,10,22,07,59,4.40
2008,10,22,08,00,4.40
2008,10,22,08,01,4.40
2008,10,22,08,02,4.40
2008,10,22,08,03,4.30
2008,10,22,08,04,4.30
2008,10,22,08,05,4.30
2008,10,22,08,06,4.30
2008,10,22,08,07,4.30
2008,10,22,08,08,4.30
2008,10,22,08,09,4.30
2008,10,22,08,10,4.30
2008,10,22,08,11,4.30
2008,10,22,08,12,4.30
2008,10,22,08,13,4.30
2008,10,22,08,14,4.30
2008,10,22,08,15,4.30
2008,10,22,08,16,4.30
2008,10,22,08,17,4.30
2008,10,22,08,18,4.30
2008,10,22,08,19,4.30
2008,10,22,08,20,4.30
2008,10,22,08,21,4.30
2008,10,22,08,22,4.30
2008,10,22,08,23,4.30
2008,10,22,08,24,4.40
2008,10,22,08,25,4.40
2008,10,22,08,26,4.40
2008,10,22,08,27,4.40
2008,10,22,08,28,4.50
2008,10,22,08,29,4.50
2008,10,22,08,30,4.60
2008,10,22,08,31,4.60
2008,10,22,08,32,4.60
2008,10,22,08,33,4.70
2008,10,22,08,34,4.70
2008,10,22,08,35,4.70
2008,10,22,08,36,4.70
2008,10,22,08,37,4.80
2008,10,22,08,38,4.80
2008,10,22,08,39,4.80
2008,10,22,08,40,4.80
2008,10,22,08,41,4.90
2008,10,22,08,42,4.90
2008,10,22,08,43,4.90
2008,10,22,08,44,5.00
2008,10,22,08,45,5.00
2008,10,22,08,46,5.10
2008,10,22,08,47,5.10
2008,10,22,08,48,5.10
2008,10,22,08,49,5.20
2008,10,22,08,50,5.20
2008,10,22,08,51,5.30
2008,10,22,08,52,5.30
2008,10,22,08,53,5.30
2008,10,22,08,54,5.40
2008,10,22,08,55,5.40
2008,10,22,08,56,5.40
2008,10,22,08,57,5.50
2008,10,22,08,58,5.50
2008,10,22,08,59,5.50
2008,10,22,09,00,5.60
2008,10,22,09,01,5.70
2008,10,22,09,02,5.70
2008,10,22,09,03,5.80
2008,10,22,09,04,5.80
2008,10,22,09,05,5.80
2008,10,22,09,06,5.80
2008,10,22,09,07,5.90
2008,10,22,09,08,6.00
2008,10,22,09,09,6.10
2008,10,22,09,10,6.10
2008,10,22,09,11,6.20
2008,10,22,09,12,6.30
2008,10,22,09,13,6.40
2008,10,22,09,14,6.50
2008,10,22,09,15,6.60
2008,10,22,09,16,6.70
2008,10,22,09,17,6.80
2008,10,22,09,18,6.80
2008,10,22,09,19,6.90
2008,10,22,09,20,6.90
2008,10,22,09,21,7.00
2008,10,22,09,22,7.10
2008,10,22,09,23,7.10
2008,10,22,09,24,7.20
2008,10,22,09,25,7.20
2008,10,22,09,26,7.20
2008,10,22,09,27,7.20
2008,10,22,09,28,7.30
2008,10,22,09,29,7.40
2008,10,22,09,30,7.50
2008,10,22,09,31,7.60
2008,10,22,09,32,7.70
2008,10,22,09,33,7.70
2008,10,22,09,34,7.70
2008,10,22,09,35,7.80
2008,10,22,09,36,7.80
2008,10,22,09,37,7.80
2008,10,22,09,38,7.90
2008,10,22,09,39,8.10
2008,10,22,09,40,8.20
2008,10,22,09,41,8.40
2008,10,22,09,42,8.60
2008,10,22,09,43,8.80
2008,10,22,09,44,8.90
2008,10,22,09,45,9.00
2008,10,22,09,46,9.00
2008,10,22,09,47,9.10
2008,10,22,09,48,9.30
2008,10,22,09,49,9.40
2008,10,22,09,50,9.60
2008,10,22,09,51,9.80
2008,10,22,09,52,9.90
2008,10,22,09,53,10.10
2008,10,22,09,54,10.20
2008,10,22,09,55,10.30
2008,10,22,09,56,10.50
2008,10,22,09,57,10.60
2008,10,22,09,58,10.60
2008,10,22,09,59,10.60
2008,10,22,10,00,10.60
2008,10,22,10,01,10.60
2008,10,22,10,02,10.60
2008,10,22,10,03,10.70
2008,10,22,10,04,10.70
2008,10,22,10,05,10.80
2008,10,22,10,06,10.80
2008,10,22,10,07,10.80
2008,10,22,10,08,10.80
2008,10,22,10,09,10.90
2008,10,22,10,10,10.90
2008,10,22,10,11,10.90
2008,10,22,10,12,11.00
2008,10,22,10,13,10.90
2008,10,22,10,14,10.90
2008,10,22,10,15,10.90
2008,10,22,10,16,10.90
2008,10,22,10,17,10.90
2008,10,22,10,18,11.00
2008,10,22,10,19,11.00
2008,10,22,10,20,11.10
2008,10,22,10,21,11.20
2008,10,22,10,22,11.30
2008,10,22,10,23,11.30
2008,10,22,10,24,11.40
2008,10,22,10,25,11.40
2008,10,22,10,26,11.40
2008,10,22,10,27,11.50
2008,10,22,10,28,11.60
2008,10,22,10,29,11.60
2008,10,22,10,30,11.60
2008,10,22,10,31,11.50
2008,10,22,10,32,11.60
2008,10,22,10,33,11.60
2008,10,22,10,34,11.60
2008,10,22,10,35,11.60
2008,10,22,10,36,11.60
2008,10,22,10,37,11.60
2008,10,22,10,38,11.70
2008,10,22,10,39,11.60
2008,10,22,10,40,11.60
2008,10,22,10,41,11.40
2008,10,22,10,42,11.30
2008,10,22,10,43,11.20
2008,10,22,10,44,11.20
2008,10,22,10,45,11.20
2008,10,22,10,46,11.20
2008,10,22,10,47,11.20
2008,10,22,10,48,11.20
2008,10,22,10,49,11.30
2008,10,22,10,50,11.50
2008,10,22,10,51,11.60
2008,10,22,10,52,11.80
2008,10,22,10,53,11.90
2008,10,22,10,54,11.90
2008,10,22,10,55,11.90
2008,10,22,10,56,12.10
2008,10,22,10,57,12.10
2008,10,22,10,58,12.10
2008,10,22,10,59,12.00
2008,10,22,11,00,11.90
2008,10,22,11,01,11.90
2008,10,22,11,02,11.90
2008,10,22,11,03,11.90
2008,10,22,11,04,11.90
2008,10,22,11,05,11.90
2008,10,22,11,06,11.80
2008,10,22,11,07,11.70
2008,10,22,11,08,11.60
2008,10,22,11,09,11.60
2008,10,22,11,10,11.60
2008,10,22,11,11,11.60
2008,10,22,11,12,11.60
2008,10,22,11,13,11.70
2008,10,22,11,14,11.80
2008,10,22,11,15,11.80
2008,10,22,11,16,11.80
2008,10,22,11,17,11.90
2008,10,22,11,18,11.90
2008,10,22,11,19,11.90
2008,10,22,11,20,11.90
2008,10,22,11,21,12.00
2008,10,22,11,22,12.00
2008,10,22,11,23,12.00
2008,10,22,11,24,12.00
2008,10,22,11,25,12.00
2008,10,22,11,26,12.10
2008,10,22,11,27,12.20
2008,10,22,11,28,12.30
2008,10,22,11,29,12.30
2008,10,22,11,30,12.30
2008,10,22,11,31,12.40
2008,10,22,11,32,12.40
2008,10,22,11,33,12.40
2008,10,22,11,34,12.40
2008,10,22,11,35,12.40
2008,10,22,11,36,12.40
2008,10,22,11,37,12.40
2008,10,22,11,38,12.40
2008,10,22,11,39,12.30
2008,10,22,11,40,12.40
2008,10,22,11,41,12.40
2008,10,22,11,42,12.40
2008,10,22,11,43,12.40
2008,10,22,11,44,12.50
2008,10,22,11,45,12.50
2008,10,22,11,46,12.60
2008,10,22,11,47,12.70
2008,10,22,11,48,12.70
2008,10,22,11,49,12.80
2008,10,22,11,50,12.80
2008,10,22,11,51,12.80
2008,10,22,11,52,12.90
2008,10,22,11,53,12.90
2008,10,22,11,54,12.90
2008,10,22,11,55,13.00
2008,10,22,11,56,13.10
2008,10,22,11,57,13.10
2008,10,22,11,58,13.10
2008,10,22,11,59,13.10
2008,10,22,12,00,13.10
2008,10,22,12,01,13.10
2008,10,22,12,02,13.10
2008,10,22,12,03,13.10
2008,10,22,12,04,13.00
2008,10,22,12,05,12.90
2008,10,22,12,06,12.70
2008,10,22,12,07,12.70
2008,10,22,12,08,12.70
2008,10,22,12,09,12.70
2008,10,22,12,10,12.80
2008,10,22,12,11,12.90
2008,10,22,12,12,12.90
2008,10,22,12,13,12.90
2008,10,22,12,14,12.90
2008,10,22,12,15,13.00
2008,10,22,12,16,13.00
2008,10,22,12,17,13.10
2008,10,22,12,18,13.10
2008,10,22,12,19,13.10
2008,10,22,12,20,13.10
2008,10,22,12,21,13.10
2008,10,22,12,22,13.10
2008,10,22,12,23,13.20
2008,10,22,12,24,13.20
2008,10,22,12,25,13.30
2008,10,22,12,26,13.20
2008,10,22,12,27,13.10
2008,10,22,12,28,13.00
2008,10,22,12,29,12.90
2008,10,22,12,30,12.90
2008,10,22,12,31,12.90
2008,10,22,12,32,12.90
2008,10,22,12,33,12.90
2008,10,22,12,34,12.90
2008,10,22,12,35,13.00
2008,10,22,12,36,13.10
2008,10,22,12,37,13.20
2008,10,22,12,38,13.20
2008,10,22,12,39,13.30
2008,10,22,12,40,13.30
2008,10,22,12,41,13.30
2008,10,22,12,42,13.40
2008,10,22,12,43,13.40
2008,10,22,12,44,13.50
2008,10,22,12,45,13.50
2008,10,22,12,46,13.50
2008,10,22,12,47,13.50
2008,10,22,12,48,13.50
2008,10,22,12,49,13.50
2008,10,22,12,50,13.50
2008,10,22,12,51,13.60
2008,10,22,12,52,13.50
2008,10,22,12,53,13.50
2008,10,22,12,54,13.40
2008,10,22,12,55,13.30
2008,10,22,12,56,13.30
2008,10,22,12,57,13.20
2008,10,22,12,58,13.10
2008,10,22,12,59,13.10
2008,10,22,13,00,13.10
2008,10,22,13,01,13.10
2008,10,22,13,02,13.10
2008,10,22,13,03,13.10
2008,10,22,13,04,13.20
2008,10,22,13,05,13.30
2008,10,22,13,06,13.40
2008,10,22,13,07,13.40
2008,10,22,13,08,13.40
2008,10,22,13,09,13.40
2008,10,22,13,10,13.50
2008,10,22,13,11,13.40
2008,10,22,13,12,13.40
2008,10,22,13,13,13.50
2008,10,22,13,14,13.50
2008,10,22,13,15,13.50
2008,10,22,13,16,13.60
2008,10,22,13,17,13.60
2008,10,22,13,18,13.60
2008,10,22,13,19,13.60
2008,10,22,13,20,13.70
2008,10,22,13,21,13.70
2008,10,22,13,22,13.80
2008,10,22,13,23,13.80
2008,10,22,13,24,13.80
2008,10,22,13,25,13.90
2008,10,22,13,26,13.90
2008,10,22,13,27,13.90
2008,10,22,13,28,14.00
2008,10,22,13,29,14.00
2008,10,22,13,30,14.10
2008,10,22,13,31,14.00
2008,10,22,13,32,14.10
2008,10,22,13,33,14.10
2008,10,22,13,34,14.20
2008,10,22,13,35,14.20
2008,10,22,13,36,14.20
2008,10,22,13,37,14.20
2008,10,22,13,38,14.30
2008,10,22,13,39,14.20
2008,10,22,13,40,14.20
2008,10,22,13,41,14.00
2008,10,22,13,42,13.90
2008,10,22,13,43,13.80
2008,10,22,13,44,13.70
2008,10,22,13,45,13.60
2008,10,22,13,46,13.60
2008,10,22,13,47,13.60
2008,10,22,13,48,13.60
2008,10,22,13,49,13.60
2008,10,22,13,50,13.70
2008,10,22,13,51,13.70
2008,10,22,13,52,13.70
2008,10,22,13,53,13.80
2008,10,22,13,54,13.90
2008,10,22,13,55,13.90
2008,10,22,13,56,14.00
2008,10,22,13,57,14.10
2008,10,22,13,58,14.20
2008,10,22,13,59,14.20
2008,10,22,14,00,14.30
2008,10,22,14,01,14.40
2008,10,22,14,02,14.40
2008,10,22,14,03,14.50
2008,10,22,14,04,14.60
2008,10,22,14,05,14.60
2008,10,22,14,06,14.70
2008,10,22,14,07,14.70
2008,10,22,14,08,14.70
2008,10,22,14,09,14.70
2008,10,22,14,10,14.50
2008,10,22,14,11,14.40
2008,10,22,14,12,14.30
2008,10,22,14,13,14.30
2008,10,22,14,14,14.20
2008,10,22,14,15,14.20
2008,10,22,14,16,14.20
2008,10,22,14,17,14.20
2008,10,22,14,18,14.20
2008,10,22,14,19,14.30
2008,10,22,14,20,14.30
2008,10,22,14,21,14.30
2008,10,22,14,22,14.30
2008,10,22,14,23,14.30
2008,10,22,14,24,14.30
2008,10,22,14,25,14.20
2008,10,22,14,26,14.10
2008,10,22,14,27,14.10
2008,10,22,14,28,14.10
2008,10,22,14,29,14.10
2008,10,22,14,30,14.00
2008,10,22,14,31,13.90
2008,10,22,14,32,13.80
2008,10,22,14,33,13.80
2008,10,22,14,34,13.80
2008,10,22,14,35,13.80
2008,10,22,14,36,13.80
2008,10,22,14,37,13.80
2008,10,22,14,38,13.80
2008,10,22,14,39,13.80
2008,10,22,14,40,13.80
2008,10,22,14,41,13.80
2008,10,22,14,42,13.80
2008,10,22,14,43,13.80
2008,10,22,14,44,13.80
2008,10,22,14,45,13.80
2008,10,22,14,46,13.80
2008,10,22,14,47,13.90
2008,10,22,14,48,13.90
2008,10,22,14,49,13.90
2008,10,22,14,50,14.00
2008,10,22,14,51,14.00
2008,10,22,14,52,14.00
2008,10,22,14,53,13.90
2008,10,22,14,54,14.00
2008,10,22,14,55,14.10
2008,10,22,14,56,14.10
2008,10,22,14,57,14.10
2008,10,22,14,58,14.20
2008,10,22,14,59,14.20
2008,10,22,15,00,14.20
2008,10,22,15,01,14.20
2008,10,22,15,02,14.20
2008,10,22,15,03,14.10
2008,10,22,15,04,14.10
2008,10,22,15,05,14.10
2008,10,22,15,06,14.10
2008,10,22,15,07,14.10
2008,10,22,15,08,14.00
2008,10,22,15,09,14.00
2008,10,22,15,10,13.90
2008,10,22,15,11,13.90
2008,10,22,15,12,13.90
2008,10,22,15,13,13.90
2008,10,22,15,14,13.90
2008,10,22,15,15,13.80
2008,10,22,15,16,13.80
2008,10,22,15,17,13.80
2008,10,22,15,18,13.80
2008,10,22,15,19,13.90
2008,10,22,15,20,14.00
2008,10,22,15,21,14.10
2008,10,22,15,22,14.10
2008,10,22,15,23,14.20
2008,10,22,15,24,14.20
2008,10,22,15,25,14.20
2008,10,22,15,26,14.20
2008,10,22,15,27,14.20
2008,10,22,15,28,14.20
2008,10,22,15,29,14.20
2008,10,22,15,30,14.20
2008,10,22,15,31,14.20
2008,10,22,15,32,14.20
2008,10,22,15,33,14.30
2008,10,22,15,34,14.30
2008,10,22,15,35,14.30
2008,10,22,15,36,14.30
2008,10,22,15,37,14.30
2008,10,22,15,38,14.30
2008,10,22,15,39,14.30
2008,10,22,15,40,14.30
2008,10,22,15,41,14.30
2008,10,22,15,42,14.30
2008,10,22,15,43,14.30
2008,10,22,15,44,14.30
2008,10,22,15,45,14.30
2008,10,22,15,46,14.30
2008,10,22,15,47,14.40
2008,10,22,15,48,14.40
2008,10,22,15,49,14.40
2008,10,22,15,50,14.40
2008,10,22,15,51,14.40
2008,10,22,15,52,14.40
2008,10,22,15,53,14.40
2008,10,22,15,54,14.30
2008,10,22,15,55,14.30
2008,10,22,15,56,14.30
2008,10,22,15,57,14.20
2008,10,22,15,58,14.20
2008,10,22,15,59,14.20
2008,10,22,16,00,14.20
2008,10,22,16,01,14.20
2008,10,22,16,02,14.20
2008,10,22,16,03,14.20
2008,10,22,16,04,14.20
2008,10,22,16,05,14.20
2008,10,22,16,06,14.10
2008,10,22,16,07,14.10
2008,10,22,16,08,14.10
2008,10,22,16,09,14.10
2008,10,22,16,10,14.10
2008,10,22,16,11,14.10
2008,10,22,16,12,14.10
2008,10,22,16,13,14.10
2008,10,22,16,14,14.10
2008,10,22,16,15,14.10
2008,10,22,16,16,14.10
2008,10,22,16,17,14.10
2008,10,22,16,18,14.10
2008,10,22,16,19,14.10
2008,10,22,16,20,14.00
2008,10,22,16,21,14.00
2008,10,22,16,22,14.00
2008,10,22,16,23,13.90
2008,10,22,16,24,13.80
2008,10,22,16,25,13.70
2008,10,22,16,26,13.70
2008,10,22,16,27,13.60
2008,10,22,16,28,13.60
2008,10,22,16,29,13.50
2008,10,22,16,30,13.40
2008,10,22,16,31,13.40
2008,10,22,16,32,13.40
2008,10,22,16,33,13.40
2008,10,22,16,34,13.40
2008,10,22,16,35,13.40
2008,10,22,16,36,13.40
2008,10,22,16,37,13.40
2008,10,22,16,38,13.40
2008,10,22,16,39,13.30
2008,10,22,16,40,13.30
2008,10,22,16,41,13.30
2008,10,22,16,42,13.20
2008,10,22,16,43,13.20
2008,10,22,16,44,13.20
2008,10,22,16,45,13.20
2008,10,22,16,46,13.20
2008,10,22,16,47,13.10
2008,10,22,16,48,13.10
2008,10,22,16,49,13.00
2008,10,22,16,50,13.00
2008,10,22,16,51,12.90
2008,10,22,16,52,12.90
2008,10,22,16,53,12.90
2008,10,22,16,54,12.80
2008,10,22,16,55,12.80
2008,10,22,16,56,12.80
2008,10,22,16,57,12.80
2008,10,22,16,58,12.80
2008,10,22,16,59,12.70
2008,10,22,17,00,12.80
2008,10,22,17,01,12.80
2008,10,22,17,02,12.80
2008,10,22,17,03,12.80
2008,10,22,17,04,12.80
2008,10,22,17,05,12.80
2008,10,22,17,06,12.90
2008,10,22,17,07,12.90
2008,10,22,17,08,12.90
2008,10,22,17,09,12.90
2008,10,22,17,10,12.90
2008,10,22,17,11,12.90
2008,10,22,17,12,12.80
2008,10,22,17,13,12.80
2008,10,22,17,14,12.70
2008,10,22,17,15,12.70
2008,10,22,17,16,12.60
2008,10,22,17,17,12.60
2008,10,22,17,18,12.50
2008,10,22,17,19,12.40
2008,10,22,17,20,12.40
2008,10,22,17,21,12.30
2008,10,22,17,22,12.20
2008,10,22,17,23,12.10
2008,10,22,17,24,12.10
2008,10,22,17,25,12.00
2008,10,22,17,26,11.90
2008,10,22,17,27,11.80
2008,10,22,17,28,11.80
2008,10,22,17,29,11.70
2008,10,22,17,30,11.60
2008,10,22,17,31,11.60
2008,10,22,17,32,11.50
2008,10,22,17,33,11.40
2008,10,22,17,34,11.40
2008,10,22,17,35,11.30
2008,10,22,17,36,11.20
2008,10,22,17,37,11.20
2008,10,22,17,38,11.10
2008,10,22,17,39,11.10
2008,10,22,17,40,11.00
2008,10,22,17,41,11.00
2008,10,22,17,42,10.90
2008,10,22,17,43,10.80
2008,10,22,17,44,10.80
2008,10,22,17,45,10.70